FW1075 Weather Reports


time (UTC)temp
F
wind
direction
speed
knots
gust
knots
rain 1hr
in
rain 24hr
in
rain mn
in
humidity
%
barometer
mb
20260504000145 57 293 2.6 4.3 0.00 0.00 0.00 39 1009.2
20260503235124 57 296 2.6 6.1 0.00 0.00 0.00 38 1009.0
20260503234121 58 302 3.5 7.0 0.00 0.00 0.00 37 1008.8
20260503233121 58 310 4.3 7.0 0.00 0.00 0.00 37 1008.7
20260503232121 58 315 4.3 8.7 0.00 0.00 0.00 36 1008.7
20260503231121 59 305 4.3 9.6 0.00 0.00 0.00 36 1008.6
20260503230121 59 317 4.3 9.6 0.00 0.00 0.00 36 1008.6
20260503225127 59 316 5.2 8.7 0.00 0.00 0.00 35 1008.6
20260503224126 59 305 6.1 10.4 0.00 0.00 0.00 34 1008.5
20260503223124 59 291 4.3 11.3 0.00 0.00 0.00 34 1008.2
20260503222123 60 293 5.2 10.4 0.00 0.00 0.00 34 1008.5
20260503221122 60 302 7.0 11.3 0.00 0.00 0.00 34 1008.4
20260503220123 60 44 6.1 9.6 0.00 0.00 0.00 33 1008.4
20260503215122 60 295 6.1 13.9 0.00 0.00 0.00 34 1008.5
20260503214123 61 299 7.0 14.8 0.00 0.00 0.00 34 1008.5
20260503213125 61 328 6.1 13.9 0.00 0.00 0.00 34 1008.2
20260503212121 62 277 6.1 16.5 0.00 0.00 0.00 33 1008.1
20260503211143 63 285 5.2 14.8 0.00 0.00 0.00 33 1008.1
20260503210121 63 289 6.1 11.3 0.00 0.00 0.00 33 1008.1
20260503205121 63 340 7.0 15.6 0.00 0.00 0.00 33 1008.2
20260503204122 63 316 6.1 12.2 0.00 0.00 0.00 32 1008.1
20260503203121 63 284 6.1 12.2 0.00 0.00 0.00 32 1008.2
20260503202121 63 292 6.1 12.2 0.00 0.00 0.00 33 1008.4
20260503201121 62 300 8.7 15.6 0.00 0.00 0.00 34 1008.4
20260503200142 62 322 6.1 10.4 0.00 0.00 0.00 34 1008.2
20260503195142 63 291 7.8 15.6 0.00 0.00 0.00 34 1008.2
20260503194122 64 295 5.2 10.4 0.00 0.00 0.00 34 1008.5
20260503193121 63 267 5.2 10.4 0.00 0.00 0.00 35 1008.6
20260503192123 62 288 7.8 15.6 0.00 0.00 0.00 35 1008.8
20260503191121 61 295 6.1 10.4 0.00 0.00 0.00 36 1009.0
20260503190121 61 298 6.1 10.4 0.00 0.00 0.00 37 1009.0
20260503185126 60 299 5.2 10.4 0.00 0.00 0.00 38 1009.2
20260503185121 61 300 5.2 10.4 0.00 0.00 0.00 37 1009.2
20260503184123 59 307 6.1 11.3 0.00 0.00 0.00 40 1009.2
20260503183143 59 296 6.1 10.4 0.00 0.00 0.00 39 1009.4
20260503182122 60 328 6.1 11.3 0.00 0.00 0.00 39 1009.2
20260503181121 59 321 6.1 9.6 0.00 0.00 0.00 40 1009.1
20260503180122 57 289 7.0 13.0 0.00 0.00 0.00 41 1009.1
20260503175143 57 290 7.0 11.3 0.00 0.00 0.00 40 1009.1
20260503174123 58 333 6.1 11.3 0.00 0.00 0.00 40 1009.1
20260503173144 59 315 6.1 14.8 0.00 0.00 0.00 40 1009.1
20260503172122 58 315 5.2 12.2 0.00 0.00 0.00 39 1009.4
20260503171143 57 279 7.0 11.3 0.00 0.00 0.00 40 1009.2
20260503170121 58 305 7.0 13.9 0.00 0.00 0.00 39 1009.2
20260503160122 54 312 7.0 11.3 0.00 0.00 0.00 43 1009.4
20260503150125 51 307 7.0 13.9 0.00 0.00 0.00 48 1009.7
20260503140122 53 324 6.1 9.6 0.00 0.00 0.00 53 1009.8
20260503131121 51 306 5.2 8.7 0.00 0.00 0.00 56 1009.8
20260503130122 51 309 4.3 7.8 0.00 0.00 0.00 57 1009.8
20260503120121 49 315 4.3 7.8 0.00 0.00 0.00 60 1009.7
20260503110122 46 303 4.3 8.7 0.00 0.00 0.00 66 1009.2
20260503100143 44 26 2.6 4.3 0.00 0.00 0.00 69 1008.4
20260503090121 45 23 2.6 6.1 0.00 0.00 0.00 65 1008.2
20260503081121 46 345 3.5 6.1 0.00 0.00 0.00 63 1008.4
20260503080121 46 323 3.5 6.1 0.00 0.00 0.00 63 1008.4
20260503072121 48 357 2.6 5.2 0.00 0.00 0.00 61 1008.2
20260503071121 48 282 3.5 7.0 0.00 0.00 0.00 60 1008.2
20260503070121 48 331 3.5 7.8 0.00 0.00 0.00 60 1008.2
20260503060121 49 6 3.5 7.0 0.00 0.00 0.00 58 1008.6
20260503055122 50 38 4.3 9.6 0.00 0.00 0.00 57 1008.5
20260503054122 50 2 3.5 7.0 0.00 0.00 0.00 58 1008.6
20260503053143 50 5 3.5 8.7 0.00 0.00 0.00 59 1008.7
20260503052121 50 328 2.6 4.3 0.00 0.00 0.00 59 1008.8
20260503051122 51 76 3.5 7.8 0.00 0.00 0.00 58 1009.0
20260503050121 51 19 3.5 7.8 0.00 0.00 0.00 57 1009.0
20260503045122 51 53 2.6 5.2 0.00 0.00 0.00 57 1009.2
20260503044124 51 33 3.5 7.0 0.00 0.00 0.00 56 1009.0
20260503043125 52 89 3.5 7.0 0.00 0.00 0.00 56 1009.1
20260503042121 52 321 3.5 6.1 0.00 0.00 0.00 56 1009.1
20260503041121 52 360 2.6 6.1 0.00 0.00 0.00 58 1009.2
20260503040144 52 8 1.7 4.3 0.00 0.00 0.00 59 1009.2
20260503035145 52 57 2.6 5.2 0.00 0.00 0.00 58 1009.1
20260503034121 52 98 1.7 4.3 0.00 0.00 0.00 57 1008.9
20260503033121 52 303 2.6 5.2 0.00 0.00 0.00 57 1008.9
20260503032123 53 332 1.7 5.2 0.00 0.00 0.00 56 1008.9
20260503031144 53 321 2.6 5.2 0.00 0.00 0.00 55 1008.9
20260503030145 53 236 2.6 5.2 0.00 0.00 0.00 54 1008.9
20260503025123 53 313 2.6 5.2 0.00 0.00 0.00 53 1009.0
20260503024122 53 17 2.6 5.2 0.00 0.00 0.00 53 1009.1
20260503023122 54 27 3.5 6.1 0.00 0.00 0.00 52 1009.0
20260503022121 54 331 2.6 6.1 0.00 0.00 0.00 51 1009.2
20260503021122 54 350 3.5 6.1 0.00 0.00 0.00 50 1009.2
20260503020124 54 342 3.5 4.3 0.00 0.00 0.00 49 1009.2
20260503015124 54 306 2.6 5.2 0.00 0.00 0.00 48 1009.2
20260503014122 54 312 3.5 6.1 0.00 0.00 0.00 48 1009.2
20260503013122 55 313 2.6 5.2 0.00 0.00 0.00 48 1009.2
20260503012121 55 336 2.6 6.1 0.00 0.00 0.00 49 1009.1
20260503011123 55 310 2.6 5.2 0.00 0.00 0.00 50 1008.9
20260503010142 55 275 2.6 4.3 0.00 0.00 0.00 50 1008.9
20260503005125 55 281 2.6 6.1 0.00 0.00 0.00 51 1008.7
20260503004121 56 290 2.6 7.0 0.00 0.00 0.00 53 1008.5
20260503003146 56 1 1.7 5.2 0.00 0.00 0.00 53 1008.5
20260503002123 57 77 2.6 5.2 0.00 0.00 0.00 51 1008.4
20260503001122 57 240 1.7 3.5 0.00 0.00 0.00 50 1008.4